{"data":{"norad_id":59544,"intl_designator":"2024-074L","name":"STARLINK-31556","alt_names":[],"object_type":"PAYLOAD","status":"ACTIVE","operator":null,"country":"US","launch_date":"2024-04-18","launch_site_code":"AFETR","launch_vehicle":null,"mission":null,"orbit_class":"UNKNOWN","rcs_meters":null,"size_class":null,"mass_kg":null,"dimensions":null,"purposes":["comms"],"wikipedia_slug":null,"has_3d_model":false,"image_url":null,"decayed_at":null,"tle_current":{"epoch":"2026-09-21T11:09:01.305216Z","epoch_age_seconds":84875,"freshness":"FRESH","line1":"1 59544U 24074L   26264.46459844  .00000402  00000+0  24114-4 0  9999","line2":"2 59544  43.0028 318.0591 0000963 276.4896  83.5846 15.27579009135955","mean_motion":15.27579009,"eccentricity":9.63e-5,"inclination_deg":43.0028,"raan_deg":318.0591,"arg_perigee_deg":276.4896,"mean_anomaly_deg":83.5846,"bstar":2.4114e-5,"rev_number":13595,"period_min":94.266809868163,"perigee_km":482.39133094496,"apogee_km":483.71279595858,"semimajor_km":6861.1890634518,"source":"CELESTRAK","updated_at":"2026-09-22T09:00:48.973004Z"}}}